• In Deutschland
  • Länderverzeichnis
  • Für 7 Tage
  • Wassertemperatur
  • Satellitenkarten
  • Wetterkarte
  • Widgets
  • user-avatar
    Anmelden

    Stündliche Wetter Sankt Pölten

    Heute, 31 März, Freitag

    Zeit Temperatur Niederschläge Wind Luftdruck Luftfeuchtigkeit
    00:00 +10°C° 0 mm 1 m/S 742 mmHg 92%
    01:00 +10°C° 0 mm 1 m/S 742 mmHg 93%
    02:00 +9°C° 0 mm 1 m/S 742 mmHg 93%
    03:00 +9°C° 0 mm 1 m/S 742 mmHg 94%
    04:00 +9°C° 0 mm 1 m/S 742 mmHg 94%
    05:00 +10°C° 0 mm 1 m/S 741 mmHg 93%
    06:00 +10°C° 0 mm 1 m/S 741 mmHg 92%
    07:00 +11°C° 0 mm 1 m/S 741 mmHg 91%
    08:00 +13°C° 0 mm 2 m/S 741 mmHg 83%
    09:00 +15°C° 0 mm 2 m/S 741 mmHg 76%
    10:00 +17°C° 0 mm 2 m/S 741 mmHg 68%
    11:00 +19°C° 0 mm 2 m/S 740 mmHg 64%
    12:00 +20°C° 0 mm 3 m/S 740 mmHg 60%
    13:00 +21°C° 0 mm 3 m/S 739 mmHg 56%
    14:00 +21°C° 0 mm 3 m/S 739 mmHg 57%
    15:00 +21°C° 0 mm 3 m/S 738 mmHg 58%
    16:00 +21°C° 0 mm 3 m/S 738 mmHg 60%
    17:00 +18°C° 0 mm 3 m/S 737 mmHg 69%
    18:00 +16°C° 0 mm 2 m/S 737 mmHg 78%
    19:00 +14°C° 0 mm 2 m/S 737 mmHg 87%
    20:00 +13°C° 0 mm 2 m/S 737 mmHg 88%
    21:00 +12°C° 0 mm 2 m/S 737 mmHg 90%
    22:00 +10°C° 0 mm 2 m/S 737 mmHg 91%
    23:00 +10°C° 0 mm 2 m/S 736 mmHg 92%

    Morgen, 1 April, Samstag

    Zeit Temperatur Niederschläge Wind Luftdruck Luftfeuchtigkeit
    00:00 +10°C° 0 mm 2 m/S 736 mmHg 93%
    01:00 +9°C° 0 mm 2 m/S 736 mmHg 93%
    02:00 +9°C° 0 mm 2 m/S 736 mmHg 94%
    03:00 +9°C° 0 mm 2 m/S 735 mmHg 94%
    04:00 +9°C° 0 mm 2 m/S 735 mmHg 94%
    05:00 +9°C° 0 mm 2 m/S 735 mmHg 93%
    06:00 +10°C° 0 mm 2 m/S 735 mmHg 91%
    07:00 +10°C° 0 mm 2 m/S 735 mmHg 90%
    08:00 +13°C° 0 mm 2 m/S 735 mmHg 82%
    09:00 +15°C° 0 mm 2 m/S 735 mmHg 74%
    10:00 +17°C° 0 mm 3 m/S 735 mmHg 66%
    11:00 +18°C° 0 mm 3 m/S 734 mmHg 61%
    12:00 +20°C° 0 mm 3 m/S 734 mmHg 56%
    13:00 +21°C° 0 mm 3 m/S 734 mmHg 52%
    14:00 +21°C° 0 mm 3 m/S 733 mmHg 52%
    15:00 +21°C° 0 mm 3 m/S 733 mmHg 53%
    16:00 +21°C° 0 mm 3 m/S 733 mmHg 53%
    17:00 +18°C° 0 mm 2 m/S 733 mmHg 63%
    18:00 +16°C° 0 mm 2 m/S 733 mmHg 72%
    19:00 +14°C° 0 mm 2 m/S 733 mmHg 82%
    20:00 +13°C° 0 mm 2 m/S 733 mmHg 83%
    21:00 +12°C° 0 mm 2 m/S 733 mmHg 85%
    22:00 +10°C° 0 mm 2 m/S 733 mmHg 87%
    23:00 +10°C° 0 mm 2 m/S 734 mmHg 87%

    übermorgen, 2 April, Sonntag

    Zeit Temperatur Niederschläge Wind Luftdruck Luftfeuchtigkeit
    00:00 +9°C° 0 mm 2 m/S 734 mmHg 87%
    01:00 +10°C° 0 mm 1 m/S 734 mmHg 87%
    02:00 +9°C° 0 mm 1 m/S 734 mmHg 87%
    03:00 +9°C° 0 mm 1 m/S 734 mmHg 87%
    04:00 +9°C° 0 mm 1 m/S 734 mmHg 86%
    05:00 +10°C° 0 mm 1 m/S 735 mmHg 84%
    06:00 +10°C° 0 mm 1 m/S 735 mmHg 81%
    07:00 +11°C° 0 mm 1 m/S 736 mmHg 79%
    08:00 +13°C° 0 mm 1 m/S 736 mmHg 73%
    09:00 +15°C° 0 mm 1 m/S 736 mmHg 68%
    10:00 +18°C° 0 mm 1 m/S 736 mmHg 62%
    11:00 +19°C° 0 mm 1 m/S 736 mmHg 60%
    12:00 +18°C° 0 mm 2 m/S 736 mmHg 58%
    13:00 +19°C° 0 mm 2 m/S 736 mmHg 55%
    14:00 +19°C° 0 mm 2 m/S 736 mmHg 57%
    15:00 +19°C° 0 mm 2 m/S 736 mmHg 58%
    16:00 +19°C° 0 mm 2 m/S 736 mmHg 59%
    17:00 +16°C° 0 mm 1 m/S 736 mmHg 69%
    18:00 +14°C° 0 mm 1 m/S 736 mmHg 80%
    19:00 +12°C° 0 mm 1 m/S 736 mmHg 90%
    20:00 +11°C° 0 mm 1 m/S 737 mmHg 91%
    21:00 +11°C° 0 mm 1 m/S 737 mmHg 92%
    22:00 +10°C° 0 mm 1 m/S 737 mmHg 93%
    23:00 +10°C° 0,1 mm 1 m/S 738 mmHg 94%

    3 April, Montag

    Zeit Temperatur Niederschläge Wind Luftdruck Luftfeuchtigkeit
    00:00 +9°C° 0,1 mm 2 m/S 738 mmHg 95%
    01:00 +9°C° 0,1 mm 2 m/S 738 mmHg 96%
    02:00 +9°C° 0 mm 2 m/S 738 mmHg 96%
    03:00 +9°C° 0 mm 2 m/S 738 mmHg 96%
    04:00 +10°C° 0 mm 2 m/S 738 mmHg 96%
    05:00 +10°C° 0 mm 2 m/S 739 mmHg 95%
    06:00 +10°C° 0 mm 2 m/S 739 mmHg 93%
    07:00 +12°C° 0 mm 2 m/S 739 mmHg 92%
    08:00 +12°C° 0,1 mm 2 m/S 739 mmHg 87%
    09:00 +13°C° 0,1 mm 2 m/S 739 mmHg 83%
    10:00 +13°C° 0,1 mm 3 m/S 740 mmHg 78%
    11:00 +14°C° 0,1 mm 3 m/S 739 mmHg 75%
    12:00 +14°C° 0,1 mm 3 m/S 739 mmHg 72%
    13:00 +16°C° 0,1 mm 3 m/S 739 mmHg 69%
    14:00 +14°C° 0,2 mm 3 m/S 739 mmHg 70%
    15:00 +14°C° 0,2 mm 3 m/S 738 mmHg 71%
    16:00 +14°C° 0,2 mm 3 m/S 738 mmHg 72%
    17:00 +13°C° 0,2 mm 3 m/S 738 mmHg 78%
    18:00 +12°C° 0,2 mm 2 m/S 739 mmHg 84%
    19:00 +9°C° 0,2 mm 2 m/S 739 mmHg 90%
    20:00 +9°C° 0,1 mm 2 m/S 739 mmHg 90%
    21:00 +8°C° 0,1 mm 2 m/S 739 mmHg 90%
    22:00 +8°C° 0,1 mm 2 m/S 740 mmHg 90%
    23:00 +7°C° 0 mm 2 m/S 740 mmHg 91%

    4 April, Dienstag

    Zeit Temperatur Niederschläge Wind Luftdruck Luftfeuchtigkeit
    00:00 +7°C° 0 mm 2 m/S 740 mmHg 91%
    01:00 +6°C° 0 mm 2 m/S 740 mmHg 91%
    02:00 +6°C° 0 mm 2 m/S 739 mmHg 91%
    03:00 +5°C° 0 mm 2 m/S 739 mmHg 92%
    04:00 +4°C° 0 mm 2 m/S 739 mmHg 93%
    05:00 +5°C° 0 mm 2 m/S 739 mmHg 91%
    06:00 +4°C° 0 mm 3 m/S 739 mmHg 89%
    07:00 +5°C° 0 mm 3 m/S 739 mmHg 87%
    08:00 +7°C° 0,1 mm 3 m/S 740 mmHg 82%
    09:00 +7°C° 0,1 mm 4 m/S 740 mmHg 76%
    10:00 +8°C° 0,1 mm 4 m/S 740 mmHg 71%
    11:00 +9°C° 0,1 mm 5 m/S 740 mmHg 68%
    12:00 +9°C° 0,1 mm 5 m/S 739 mmHg 64%
    13:00 +10°C° 0,1 mm 5 m/S 739 mmHg 61%
    14:00 +10°C° 0,1 mm 5 m/S 739 mmHg 61%
    15:00 +10°C° 0,1 mm 5 m/S 739 mmHg 61%
    16:00 +10°C° 0,1 mm 5 m/S 739 mmHg 60%
    17:00 +8°C° 0,1 mm 4 m/S 739 mmHg 68%
    18:00 +7°C° 0,1 mm 3 m/S 739 mmHg 76%
    19:00 +5°C° 0,1 mm 2 m/S 739 mmHg 84%
    20:00 +5°C° 0 mm 2 m/S 740 mmHg 85%
    21:00 +4°C° 0 mm 2 m/S 740 mmHg 87%
    22:00 +4°C° 0 mm 2 m/S 741 mmHg 88%
    23:00 +4°C° 0 mm 2 m/S 741 mmHg 89%

    5 April, Mittwoch

    Zeit Temperatur Niederschläge Wind Luftdruck Luftfeuchtigkeit
    00:00 +3°C° 0 mm 2 m/S 741 mmHg 90%
    01:00 +3°C° 0 mm 2 m/S 741 mmHg 92%
    02:00 +3°C° 0 mm 2 m/S 741 mmHg 92%
    03:00 +3°C° 0 mm 2 m/S 740 mmHg 93%
    04:00 +3°C° 0 mm 2 m/S 740 mmHg 93%
    05:00 +2°C° 0 mm 3 m/S 740 mmHg 90%
    06:00 +3°C° 0 mm 3 m/S 741 mmHg 86%
    07:00 +4°C° 0 mm 3 m/S 741 mmHg 83%
    08:00 +7°C° 0 mm 3 m/S 741 mmHg 76%
    09:00 +7°C° 0 mm 4 m/S 741 mmHg 69%
    10:00 +10°C° 0 mm 4 m/S 741 mmHg 62%
    11:00 +11°C° 0 mm 4 m/S 740 mmHg 60%
    12:00 +12°C° 0 mm 5 m/S 740 mmHg 57%
    13:00 +13°C° 0 mm 5 m/S 739 mmHg 55%
    14:00 +13°C° 0 mm 5 m/S 739 mmHg 56%
    15:00 +13°C° 0 mm 5 m/S 739 mmHg 58%
    16:00 +13°C° 0 mm 5 m/S 738 mmHg 60%
    17:00 +11°C° 0,2 mm 4 m/S 738 mmHg 69%
    18:00 +10°C° 0,2 mm 3 m/S 738 mmHg 79%
    19:00 +8°C° 0,2 mm 3 m/S 738 mmHg 88%
    20:00 +8°C° 0,6 mm 3 m/S 739 mmHg 90%
    21:00 +7°C° 0,6 mm 3 m/S 739 mmHg 91%
    22:00 +7°C° 0,6 mm 2 m/S 739 mmHg 93%
    23:00 +7°C° 0,8 mm 2 m/S 739 mmHg 93%
    Mehr zeigen